INNOSAT-2 (43738 NORAD) Tracking and Keplerian Element Data

This shows tracking and keplerian element data for the satellite.

Feedback or suggestion? Click here.




ElementValue
Catalog43738
NameINNOSAT-2
Epoch Orbit2729
Epoch Day146.86633706
Epoch Year2019
RAAN217.3509
Inclination97.4609
Eccentricity0.0026088
Argument of Perigee65.1271
Mean Anonmoly295.2676
Mean Motion15.28550557
Decay Rate1.483E-05
L11 43738U 18096V 19146.86633706 .00001483 00000-0 55657-4 0 9997
L22 43738 97.4609 217.3509 0026088 65.1271 295.2676 15.28550557 27295

Live tracking and technical data element details for INNOSAT-2 (NORAD 43738). INNOSAT-2 can be tracked NOW for your location showing map with azimuth and elevation plus other details from your city location.

Track the satellite on the map from your city or location and see movement details for azimuth, elevation, latitude, longitude, range, height, and movement on the map or in text.







IsCatalogInMostPopularTable: catalog: 43738, numindb: 81
Update: records affected: 1



GetName: 43738 INNOSAT-2

Hit Count: updated at: Mon, 27 May 2019 04:16:23 GMT